sat.trackr.live / text

‹ back to catalog

HULIANWANG DIGUI-07

NORAD 62329 · 2024-240G

PAYLOAD ACTIVE UNKNOWN

§ Identity

Operator
Country
PRC
Launch date
2024-12-16
Launch site
WSC
Launch vehicle
Mass (kg)
RCS (m²)

External: N2YO · Heavens-Above · Gunter

§ Orbital elements

Epoch: 2026-05-25T03:17:47.760576Z

Period
108.73 min
Inclination
86.4953°
Eccentricity
0.0001450
Mean motion
13.24408355 rev/d
Perigee alt
1,166.8 km
Apogee alt
1,169.0 km
Semi-major
7,546.1 km
B*
1.1175e-4
RAAN
350.7381°
Arg perigee
82.4121°
Mean anomaly
277.7177°
Rev number
6,959

§ Raw data

HULIANWANG DIGUI-071 62329U 24240G   26145.13735834  .00000063  00000+0  11175-3 0  99922 62329  86.4953 350.7381 0001450  82.4121 277.7177 13.24408355 69596

JSON: /api/v1/satellites/62329 · /tle

For live sub-satellite position, see the globe view (requires WebGL).

§ Visibility from observer

Set your observer location to see the next 7 days of passes ≥ 10°. The values pass through the URL so the page stays shareable.

No JS? Fill the form by hand. The geolocation button needs JavaScript.